Regional Weather Roundup
Issued by NWS

Home | Current Version | Previous Version | Text Only | Print | Product List | Glossary Off
Versions: 1 2 3 4 5 6 7 8 9 10 11 12 13 14 15 16 17 18 19 20 21 22 23 24 25 26 27 28 29 30 31 32 33 34 35 36 37 38 39 40 41 42 43 44 45 46 47 48 49 50

000
ASUS45 KSLC 230110
RWRUT

UTAH REGIONAL WEATHER ROUNDUP
NATIONAL WEATHER SERVICE SALT LAKE CITY UT
700 PM MDT TUE JUL 22 2014

UTZ001>011-023>025-230200-

NORTHERN UTAH

CITY           SKY/WX    TMP DP  RH WIND       PRES   REMARKS
HILL AFB       SUNNY     94  41  16 NW9       30.14F HX  90
LOGAN          NOT AVBL
OGDEN          SUNNY     94  40  15 N9        30.11F HX  90
PROVO AIRPORT  MOSUNNY   97  34  11 VRB3      30.10F HX  91
SALT LAKE CITY MOSUNNY   97  32  10 N9        30.07F HX  91
VERNAL         SUNNY     94  23   8 SE5       30.19F
WENDOVER       SUNNY     97  34  11 E12       30.05F HX  91
HEBER CITY     SUNNY     95  30  10 SW9       30.19F
WEST JORDAN    SUNNY     97  52  21 NW10      30.11F HX  94

$$

UTZ012>022-026-027-230200-

SOUTHERN UTAH

CITY           SKY/WX    TMP DP  RH WIND       PRES   REMARKS
BRYCE CANYON   SUNNY     84  26  12 SE10G16   30.41S
CEDAR CITY     SUNNY     93  29  10 SW13      30.20F
MILFORD        SUNNY     96  30   9 SW17G26   30.14S HX  90
MOAB/CYNLANDS  SUNNY    100  19   5 VRB3      30.10S HX  93
PRICE          SUNNY     95  16   5 SW12      30.25F
ST GEORGE      CLEAR    102  37  10 W14       29.99S HX  96
KANAB            N/A     97  34  11 S7        30.17  HX  91

$$

REGIONAL REPORTS     COLORADO/ARIZONA

CITY           SKY/WX    TMP DP  RH WIND       PRES   REMARKS
CRAIG, CO      SUNNY     93  20   7 NE5       30.29F
GRAND JUNCTION SUNNY     95  29   9 W8        30.13F
RIFLE          SUNNY     97  18   6 N3        30.20S HX  90
MONTROSE       MOSUNNY   95  29   9 NW8       30.23S
CORTEZ         SUNNY     95  28   9 SW6       30.22R
PAGE, AZ       MOSUNNY  101  31   8 NE7       30.09S HX  94
GRAND CANYON   PTSUNNY   86  34  15 W8        30.34F
KINGMAN        SUNNY     99  20   6 SW14      30.05F HX  92
FLAGSTAFF      PTSUNNY   84  37  18 W9        30.37S

$$

REGIONAL REPORTS    NEVADA/IDAHO/WYOMING

CITY           SKY/WX    TMP DP  RH WIND       PRES   REMARKS
LAS VEGAS, NV  SUNNY    108  15   3 S6        29.88F HX  99
ELY            SUNNY     90  11   5 SW20G29   30.23S
ELKO           MOSUNNY   92  19   7 S14       30.06F
POCATELLO, ID  MOSUNNY   91  45  20 N9        30.14F
BURLEY         SUNNY     91  47  21 NE10      30.04F
EVANSTON, WY   SUNNY     86  31  13 W9        30.35F
ROCK SPRINGS   SUNNY     88  24  10 NW9       30.34F

$$


USA.gov is the U.S. government's official web portal to all federal, state and local government web resources and services.